Location: Glennaphuca Cross Roads
(52.2689°N, 7.3978°W)
Time: 05:45:39
(UTC+00:00)

Daily predictions for brighter satellites

Satellite Brightness Start Highest point End
(mag) Time Altitude Azimuth Time Altitude Azimuth Time Altitude Azimuth
Cosmos 1025 Rocket 3.5 00:01:58 10° N 00:06:07 47° ENE 00:06:21 46° E
Cosmos 1464 Rocket 3.9 00:05:12 50° SSE 00:06:52 74° E 00:13:03 10° NNE
USA 267 3.5 00:02:27 10° ENE 00:08:58 70° NNW 00:15:28 10° W
Cosmos 2360 Rocket 4.3 00:06:30 10° WNW 00:09:08 13° W 00:10:43 12° WSW
Okean 2 3.9 00:05:18 10° NNW 00:09:13 50° W 00:09:13 50° W
SJ 16-02 3.7 00:09:53 13° E 00:09:53 13° E 00:11:32 10° ENE
Cosmos 1538 Rocket 4.0 00:04:52 10° NNW 00:10:04 76° ENE 00:11:04 57° SE
Okean 2 Rocket 3.8 00:10:40 42° E 00:10:41 42° E 00:14:57 10° NNE
SL-16 R/B 2.9 00:05:38 10° NNW 00:11:12 50° NE 00:13:48 29° ESE
Nadezhda 4 Rocket 4.0 00:07:36 10° N 00:13:56 79° E 00:15:44 49° SSE
Cosmos 1975 3.0 00:15:44 67° WNW 00:15:44 67° WNW 00:19:42 10° N
NOSS 0 Rocket 4.2 00:12:56 10° NW 00:18:58 52° WSW 00:20:10 45° SSW
Meteor 1-21 4.4 00:15:48 10° NNW 00:21:32 62° W 00:22:46 50° SW
Cosmos 1743 4.3 00:24:26 27° W 00:24:56 28° WNW 00:28:20 10° N
Cosmos 2297 Rocket 2.4 00:28:55 49° SE 00:29:31 51° ESE 00:34:59 10° NE
Cosmos 2344 4.3 00:20:47 10° NW 00:29:57 78° SW 00:38:10 25° SSE
Cosmos 1544 4.3 00:30:28 35° WNW 00:30:28 35° WNW 00:33:46 10° N
Sich 1 Rocket 3.4 00:30:37 85° WSW 00:30:42 86° W 00:35:07 10° N
Meteor 2-9 Rocket 4.3 00:31:02 49° SW 00:32:31 70° WNW 00:38:19 10° N
Cosmos 1980 3.9 00:27:08 10° NW 00:32:39 53° WSW 00:33:21 50° SW
COSMOS 2428 4.0 00:28:36 10° NW 00:33:13 25° WSW 00:33:49 25° WSW
ALOS 2 3.6 00:33:27 35° W 00:33:27 35° W 00:37:29 10° NNW
Cosmos 1092 Rocket 4.0 00:28:26 10° N 00:34:42 72° ENE 00:36:34 46° SSE
In-Cosmos 22 4.1 00:29:40 10° NNW 00:35:16 81° ENE 00:36:23 58° SSE
YAOGAN 11 4.0 00:35:46 79° S 00:36:03 87° WSW 00:40:40 10° NNW
DNEPR-1 R/B 4.0 00:32:46 10° NW 00:38:39 60° SW 00:38:57 59° SW
Cosmos 2034 Rocket 3.9 00:37:47 51° S 00:39:33 89° E 00:45:57 10° N
Cosmos 2237 Rocket 2.4 00:35:11 10° NW 00:40:38 50° WSW 00:41:12 48° SW
Cosmos 2219 3.1 00:41:47 59° S 00:42:42 71° ESE 00:48:19 10° NE
Cosmos 2151 Rocket 3.7 00:43:30 62° E 00:43:32 62° E 00:47:53 10° NNE
Helios 1A 3.2 00:45:29 59° W 00:45:29 59° W 00:49:28 10° NNW
Cosmos 1536 Rocket 3.4 00:45:25 10° NNW 00:49:46 85° W 00:49:46 85° W
Cosmos 1680 Rocket 3.8 00:44:36 10° NNW 00:49:48 61° ENE 00:51:27 41° ESE
Lacrosse 4 Rocket 3.6 00:46:28 10° W 00:49:49 22° NW 00:53:08 10° NNE
Cosmos 1674 3.2 00:46:29 10° N 00:49:53 52° ENE 00:49:53 52° ENE
CZ-4 R/B 4.2 00:45:44 10° NNE 00:50:41 54° E 00:51:18 51° SE
Cosmos 2333 Rocket 4.1 00:47:37 10° WNW 00:50:55 16° W 00:51:29 16° WSW
Cosmos 1461 4.2 00:55:29 31° E 00:55:29 31° E 00:58:54 10° NE
Cosmos 1777 Rocket 3.9 00:56:11 61° SSW 00:57:10 86° WNW 01:02:31 10° NNE
ATLAS 3B R/B 3.9 00:54:02 10° W 01:00:14 40° NNW 01:06:33 10° NE
Iridium 51 4.4 00:58:29 10° N 01:02:16 72° NE 01:02:16 72° NE
PSLV R/B 3.7 01:00:57 10° NNE 01:05:42 79° ESE 01:06:13 69° SSE
CZ-2D R/B 3.9 01:01:43 10° NE 01:05:57 22° E 01:08:00 18° ESE
Cosmos 1707 4.1 01:06:44 10° NNW 01:09:41 30° WNW 01:09:41 30° WNW
Cosmos 1943 4.4 01:04:58 10° NNW 01:10:15 39° NE 01:15:30 10° ESE
Cosmos 1766 4.1 01:11:18 39° E 01:11:18 39° E 01:14:49 10° NNE
Cosmos 1607 4.1 01:07:00 10° NW 01:13:16 55° WSW 01:14:32 48° SSW
Meteor 1-12 Rocket 4.5 01:11:35 47° SW 01:13:19 69° WNW 01:19:22 10° N
SL-16 R/B 3.3 01:09:26 20° SE 01:13:31 49° ENE 01:19:29 10° N
Cosmos 1733 4.2 01:14:34 36° E 01:14:34 36° E 01:18:04 10° NNE
Cosmos 1626 3.0 01:11:34 10° N 01:15:09 42° ENE 01:15:17 42° E
Uosat 12 SS-18 rocket 4.2 01:16:49 59° WSW 01:17:37 76° NW 01:22:01 10° NE
Cosmos 2227 Rocket 2.1 01:18:31 52° SW 01:20:00 87° WNW 01:25:42 10° NNE
Cosmos 923 Rocket 4.0 01:17:41 10° NNW 01:22:58 64° WSW 01:23:41 57° SSW
Meteor 2-5 Rocket 3.6 01:17:46 10° NNW 01:23:25 83° ENE 01:25:04 48° SSE
Helios 1B rocket 2.3 01:21:45 10° NNE 01:25:53 82° ESE 01:25:58 81° SE
Landsat 4 4.0 01:22:41 10° N 01:26:18 60° WNW 01:26:18 60° WNW
Cosmos 2026 Rocket 4.0 01:21:16 10° NNW 01:27:20 68° W 01:29:04 47° SSW
Cosmos 1300 Rocket 4.2 01:27:08 39° W 01:27:31 40° WNW 01:31:37 10° N
CENTAUR R/B 4.5 01:24:38 10° WNW 01:31:02 35° N 01:38:24 10° ENE
Cosmos 2279 Rocket 4.1 01:29:43 41° SSE 01:31:54 68° E 01:38:05 10° NNE
Cosmos 1805 3.2 01:32:08 79° ENE 01:32:08 79° ENE 01:35:58 10° NNE
Resurs 1-4 Rocket 3.1 01:34:48 10° NNE 01:39:43 38° E 01:41:36 29° SE
Cosmos 2098 Rocket 4.2 01:37:25 10° N 01:42:47 60° ENE 01:46:32 25° SSE
Cosmos 2082 3.6 01:44:36 49° SSW 01:46:14 89° ESE 01:51:54 10° NNE
Okean 1 Rocket 3.0 01:46:41 62° WSW 01:47:10 68° WNW 01:51:33 10° N
SJ 16-02 1.2 01:46:52 68° SSW 01:47:24 89° W 01:51:51 10° NNE
Cosmos 1634 Rocket 4.1 01:45:25 41° SW 01:47:33 66° WNW 01:53:45 10° N
Okean 2 Rocket 4.5 01:48:02 25° W 01:48:56 27° WNW 01:52:49 10° N
NOSS 3-1 (C) 3.5 01:48:09 43° S 01:49:41 56° SE 01:56:02 10° NE
USA 267 3.8 01:45:16 10° E 01:51:41 60° N 01:58:06 10° WNW
SL-14 R/B 3.0 01:48:33 10° NNW 01:52:28 83° W 01:52:33 82° SW
Meteor 2-19 Rocket 4.4 01:46:40 10° NNW 01:52:52 88° W 01:55:33 37° S
SL-16 R/B 2.8 01:50:02 10° NW 01:55:12 36° WSW 01:55:38 36° WSW
Cosmos 2263 Rocket 3.2 01:56:40 26° SSE 01:58:41 35° ESE 02:03:41 10° NE
Cosmos 724 4.3 01:55:15 10° NW 02:01:11 63° SW 02:03:51 33° SSE
MOZ.5/SAFIR/RUBIN 5/SL-8 3.7 02:00:52 52° SSW 02:01:53 69° WSW 02:06:37 10° NNW
CZ-4C R/B 3.0 02:05:30 70° SE 02:05:51 80° ENE 02:09:34 10° NNW
Okean 1-7 Rocket 3.5 02:03:06 10° NNW 02:07:34 86° W 02:08:38 52° S
SL-19 R/B 4.2 02:01:57 10° NNE 02:07:51 86° WNW 02:09:58 40° SSW
Cosmos 1937 Rocket 3.7 02:07:18 40° S 02:09:05 65° ESE 02:14:22 10° NNE
NOSS 2-3 (D) 4.4 02:08:30 36° SSE 02:09:21 39° ESE 02:14:04 10° NE
Cosmos 1626 Rocket 4.2 02:06:38 10° N 02:10:53 51° ENE 02:13:03 26° SE
COBE Rocket 4.3 02:08:32 24° SE 02:11:13 57° ENE 02:15:48 10° N
ADEOS II 3.5 02:06:37 10° NNE 02:11:15 30° E 02:14:31 16° SE
Cosmos 990 Rocket 3.9 02:09:50 45° SSW 02:11:28 88° WNW 02:16:40 10° NNE
Cosmos 2297 Rocket 3.2 02:10:42 22° W 02:13:46 38° NW 02:19:03 10° NNE
Cosmos 1455 Rocket 3.1 02:12:38 47° S 02:13:50 74° E 02:18:19 10° NNE
CZ-4B R/B 4.5 02:09:57 10° NNE 02:14:21 36° E 02:16:40 23° SSE
ATLAS CENTAUR R/B 3.4 02:13:46 15° SE 02:14:32 16° ESE 02:16:56 10° ENE
Cosmos 1726 3.6 02:14:19 24° SE 02:15:28 30° E 02:18:43 10° NNE
UNK 3.7 02:17:20 45° S 02:18:39 69° WSW 02:23:21 10° NNW
Cosmos 2266 Rocket 3.9 02:13:16 10° NNW 02:19:38 81° W 02:22:57 30° S
Meteor 1-29 3.9 02:19:21 10° N 02:22:33 35° WNW 02:22:42 35° WNW
Cosmos 1892 Rocket 3.9 02:20:03 10° NNW 02:24:20 46° W 02:24:59 43° WSW
Cosmos 1898 Rocket 3.5 02:24:13 39° SW 02:26:10 75° WNW 02:31:23 10° NNE
GEOS 3 Rocket 4.2 02:20:59 10° NE 02:26:13 48° SE 02:28:25 31° S
Meteor 1-21 Rocket 4.4 02:21:41 10° N 02:27:15 68° ENE 02:31:40 16° SSE
USA 229 DEB 3.6 02:24:10 33° SW 02:27:23 80° SE 02:34:22 10° NE
USA 229 3.6 02:24:18 33° SSW 02:27:29 79° SE 02:34:27 10° NE
Meteor 1-24 Rocket 4.2 02:24:51 10° NNW 02:29:54 40° W 02:31:16 34° SW
Cosmos 1932 4.4 02:24:57 10° NW 02:31:27 73° SW 02:37:48 10° SSE
ARIANE 5 R/B 4.4 02:27:14 10° NE 02:31:33 25° E 02:35:51 10° SSE
Cosmos 1461 3.7 02:31:50 29° W 02:33:46 50° NW 02:38:19 10° NE
IRAS Rocket 4.4 02:32:12 34° SSW 02:34:21 52° WSW 02:39:51 10° NNW
NOSS 3 (A) 4.4 02:35:46 80° NW 02:35:46 80° NW 02:38:56 10° NE
Cosmos 1603 3.8 02:30:23 10° NW 02:36:01 57° WSW 02:39:05 27° S
NOSS 2-3 (C) 3.8 02:35:34 40° SSW 02:37:04 65° SE 02:42:18 10° NE
NOSS 3-1 (A) 3.4 02:36:02 33° SSW 02:38:41 72° SE 02:45:15 10° NE
SL-19 R/B 4.5 02:37:46 19° S 02:42:33 73° WSW 02:48:35 10° NNW
MINOTAUR IV R/B 4.5 02:38:03 10° NNW 02:42:35 88° WSW 02:46:16 15° SSE
Cosmos 1340 Rocket 2.7 02:42:43 46° SW 02:43:46 71° WNW 02:47:43 10° N
Cosmos 1758 3.2 02:44:28 43° SSW 02:45:40 75° WNW 02:49:41 10° N
CZ-2D R/B 2.2 02:41:03 10° NNE 02:46:33 72° WNW 02:49:18 30° SSW
Cosmos 1703 4.0 02:45:23 10° N 02:49:17 51° ENE 02:52:42 13° SSE
H-2A R/B 4.4 02:46:26 10° ESE 02:49:39 23° ENE 02:52:54 10° N
Cosmos 1626 3.9 02:47:29 10° NW 02:49:48 18° W 02:49:48 18° W
ATLAS 3B R/B 4.4 02:46:44 10° WNW 02:52:36 31° N 02:58:36 10° ENE
Cosmos 1943 3.4 02:49:03 10° NW 02:54:28 49° WSW 02:57:52 22° S
Timation 1 Rocket 4.4 02:53:19 28° SW 02:56:38 72° NW 03:02:38 10° NNE
Nadezhda 2 Rocket 4.4 02:50:56 10° N 02:57:11 90° WSW 03:02:51 12° S
SL-16 R/B 3.1 02:54:31 27° SW 02:57:16 39° W 03:03:06 10° NNW
Cosmos 1470 3.4 02:59:40 33° WSW 03:00:52 43° WNW 03:04:43 10° N
Cosmos 1953 2.3 02:59:36 30° S 03:01:31 85° E 03:05:37 10° NNE
Cosmos 1544 Rocket 3.8 02:59:45 32° SW 03:01:35 56° WNW 03:06:00 10° N
IRS-1D 3.5 02:57:40 10° NNE 03:02:48 84° ESE 03:06:07 23° SSW
Cosmos 1328 4.3 02:59:10 10° N 03:03:09 61° ENE 03:07:02 10° SSE
Cosmos 2227 Rocket 3.9 03:00:20 10° W 03:04:52 25° NW 03:09:29 10° NNE
NPP 3.8 03:00:11 10° N 03:05:30 60° WNW 03:08:34 25° SW
AQUA 4.0 03:06:02 10° N 03:10:44 59° WNW 03:13:18 26° SW
Cosmos 1602 Rocket 3.9 03:15:04 10° NNW 03:19:15 46° W 03:21:31 24° SSW
Resurs 1-4 Rocket 2.8 03:14:41 10° N 03:19:36 40° WNW 03:22:40 21° WSW
CENTAUR R/B 4.1 03:16:08 10° NW 03:23:27 50° NNE 03:31:44 10° ESE
Cosmos 1606 Rocket 4.4 03:19:25 10° S 03:23:43 51° E 03:28:03 10° NNE
Meteor 2-16 Rocket 4.4 03:17:50 10° NNW 03:24:00 72° W 03:30:07 10° S
SJ 16-02 3.5 03:23:51 10° W 03:26:41 17° NW 03:29:33 10° N
IDEFIX/ARIANE 42P 3.4 03:23:08 10° NNE 03:28:11 48° E 03:33:14 10° S
Cosmos 1908 3.2 03:31:24 18° SSW 03:34:12 86° W 03:38:10 10° N
USA 267 3.3 03:27:57 10° ESE 03:34:30 85° NNE 03:41:05 10° WNW
NOSS 2-3 (E) 4.2 03:32:14 18° WSW 03:35:29 58° NW 03:40:59 10° NE
Cosmos 1048 Rocket 4.3 03:31:09 10° NW 03:36:00 43° WSW 03:40:53 10° S
Cosmos 1726 Rocket 4.2 03:34:02 10° S 03:38:23 57° E 03:42:47 10° NNE
IRS-P3 4.1 03:33:10 10° NNE 03:38:34 78° WNW 03:43:08 14° SSW
Cosmos 2228 3.2 03:36:23 11° S 03:40:37 74° E 03:45:01 10° NNE
NOSS 3-1 (C) 4.2 03:35:32 12° WSW 03:40:43 49° NNW 03:47:27 10° NE
Cosmos 2263 Rocket 2.6 03:38:22 17° WSW 03:42:27 51° NW 03:47:54 10° NNE
Cosmos 2298 Rocket 4.1 03:38:29 18° SW 03:42:28 67° WNW 03:47:49 10° NNE
Meteor 1-28 Rocket 3.6 03:41:32 14° S 03:44:31 45° W 03:48:12 10° NNW
Cosmos 1386 Rocket 4.4 03:38:54 10° N 03:44:58 90° E 03:51:00 10° S
CZ-2C R/B 3.8 03:44:07 10° NNE 03:47:49 44° E 03:51:24 10° S
Meteor 1-16 Rocket 4.3 03:43:57 15° SSW 03:48:32 63° WNW 03:54:11 10° N
SL-08 R/B 3.8 03:44:37 10° S 03:49:22 45° W 03:54:08 10° NNW
Cosmos 1726 3.4 03:48:49 17° WSW 03:50:42 25° WNW 03:53:48 10° NNW
Cosmos 1356 Rocket 3.7 03:47:00 10° S 03:51:07 68° E 03:55:11 10° NNE
ADEOS II 2.5 03:46:06 10° N 03:51:11 50° WNW 03:55:27 14° SW
Spot 4 Rocket 4.2 03:47:24 10° NNE 03:52:37 76° ESE 03:57:46 10° S
ATLAS CENTAUR R/B 1.2 03:49:57 17° SW 03:52:58 83° NW 03:56:50 10° NE
CZ-4B R/B 4.2 03:48:44 10° N 03:53:05 36° WNW 03:56:36 14° SW
Cosmos 1300 3.4 03:50:36 10° S 03:54:19 55° E 03:58:05 10° NNE
ERS-2 2.4 03:54:19 10° SSE 03:57:56 71° ENE 04:01:36 10° NNW
Cosmos 1269 Rocket 4.0 03:52:54 10° NNW 03:58:11 70° WSW 04:03:27 10° SSE
Cosmos 2297 Rocket 4.5 03:56:21 10° NW 03:59:31 15° NNW 04:02:42 10° NNE
CZ-4C R/B 2.8 03:57:27 10° SSE 04:00:47 85° WSW 04:04:14 10° NNW
Cosmos 2285 Rocket 4.2 03:55:52 13° SW 04:01:27 64° WNW 04:07:44 10° NNE
GEOS 3 Rocket 4.2 03:59:03 10° NE 04:04:18 53° NW 04:09:30 10° WSW
Cosmos 1844 Rocket 2.9 03:59:44 10° SSW 04:05:15 69° ESE 04:10:49 10° NE
Cosmos 1553 Rocket 4.0 04:00:26 10° SSW 04:06:28 64° WNW 04:12:37 10° N
Meteor 1-11 4.4 04:01:08 10° NNW 04:06:43 53° W 04:12:12 10° S
Cosmos 1833 Rocket 4.0 04:01:33 10° NNW 04:07:00 45° NE 04:12:24 10° ESE
CSL-04 DEB 4.4 04:04:10 10° S 04:08:03 60° WSW 04:12:02 10° NNW
NOSS 3-2 (A) 4.1 04:01:09 10° NW 04:08:26 85° NE 04:16:47 10° SE
Cosmos 2084 3.7 04:05:20 13° WSW 04:09:14 67° NW 04:13:41 10° NE
NOSS 2-2 (C) 4.4 04:06:04 10° SSW 04:09:23 36° SE 04:13:04 10° ENE
Lacrosse 5 rocket 4.3 04:09:19 10° SE 04:10:25 11° ESE 04:11:30 10° ESE
ARIANE 5 R/B 2.8 04:05:52 10° N 04:11:01 59° WNW 04:16:09 10° SSW
Cosmos 1745 Rocket 4.1 04:07:53 10° NNW 04:14:00 56° W 04:20:02 10° SSW
NOSS 8 (H) 4.3 04:11:26 12° SW 04:14:13 70° SE 04:17:17 10° NE
SeaSat 1 4.3 04:10:09 10° NE 04:14:21 27° ESE 04:18:30 10° SSE
NOSS 3-2 (C) 4.3 04:11:18 10° NW 04:18:31 73° NE 04:26:48 10° SE
Cosmos 1867 3.6 04:16:15 10° NW 04:21:45 80° SW 04:27:12 10° SE
NOSS 8 (E) 4.4 04:19:48 11° WSW 04:22:43 60° NW 04:25:46 10° NE
Meteor 2-15 4.4 04:18:06 10° SSW 04:24:09 78° WNW 04:30:16 10° N
Cosmos 2058 Rocket 3.1 04:20:35 10° SSW 04:25:03 81° W 04:29:30 10° N
H-2A R/B 2.2 04:21:26 10° S 04:25:23 48° W 04:29:24 10° NNW
CZ-2D R/B 4.1 04:22:22 10° NNW 04:25:43 17° NW 04:29:05 10° W
Cosmos 2058 3.4 04:24:19 10° N 04:28:30 68° ENE 04:32:40 10° SSE
NOSS 3-1 (A) 4.4 04:24:24 10° W 04:30:04 43° NNW 04:36:45 10° NE
CZ-2C R/B 3.0 04:26:12 10° NNE 04:30:44 55° E 04:35:20 10° S
Cosmos 1408 3.7 04:27:13 10° N 04:30:52 51° ENE 04:34:29 10° SSE
DEBRIS 3.3 04:30:37 10° SW 04:32:26 22° SSE 04:34:19 10° E
Landsat 5 3.8 04:30:01 10° S 04:33:52 43° W 04:37:54 10° NNW
Cosmos 1892 2.7 04:34:21 10° NNW 04:38:13 86° W 04:42:02 10° S
S3M 4.3 04:32:13 10° SSW 04:38:28 53° WNW 04:44:43 10° N
In-Cosmos 22 Rocket 4.3 04:32:39 10° NNW 04:38:31 74° W 04:44:16 10° S
Cosmos 1953 4.5 04:36:38 10° W 04:38:33 13° WNW 04:40:30 10° NNW
CZ-4B R/B 1.4 04:36:06 10° SSE 04:39:16 77° ENE 04:42:24 10° NNW
Cosmos 1125 Rocket 4.2 04:34:56 10° SW 04:39:53 41° NW 04:44:56 10° NNE
USA 215 3.5 04:36:40 10° ENE 04:43:14 71° SSE 04:49:47 10° SW
